Time,TemperatureF,DewpointF,PressureIn,WindDirection,WindDirectionDegrees,WindSpeedMPH,WindSpeedGustMPH,Humidity,HourlyPrecipIn,Conditions,Clouds,dailyrainin,SolarRadiationWatts/m^2,SoftwareType,DateUTC
2013-02-25 00:02:00,28.0,23.0,-100.00,ESE,115,2.0,7.0,80,0.00,,,0.00,0.000000,,2013-02-25 06:02:00,
2013-02-25 00:11:00,28.0,23.0,-100.00,ESE,115,2.0,7.0,80,0.00,,,0.00,0.000000,,2013-02-25 06:11:00,
2013-02-25 00:32:00,28.0,23.0,-100.00,ESE,114,1.0,4.0,82,0.00,,,0.00,0.000000,,2013-02-25 06:32:00,
2013-02-25 00:42:00,28.0,23.0,-100.00,ESE,114,1.0,4.0,82,0.00,,,0.00,0.000000,,2013-02-25 06:42:00,
2013-02-25 00:52:00,28.0,23.0,-100.00,ESE,114,1.0,4.0,82,0.00,,,0.00,0.000000,,2013-02-25 06:52:00,
2013-02-25 01:01:00,28.0,23.0,-100.00,ESE,114,1.0,4.0,82,0.00,,,0.00,0.000000,,2013-02-25 07:01:00,
2013-02-25 01:11:00,28.0,23.0,-100.00,ESE,114,1.0,4.0,82,0.00,,,0.00,0.000000,,2013-02-25 07:11:00,
2013-02-25 01:42:00,27.0,23.0,-100.00,ESE,116,2.0,3.0,85,0.00,,,0.00,0.000000,,2013-02-25 07:42:00,
2013-02-25 01:52:00,27.0,23.0,-100.00,ESE,116,2.0,3.0,85,0.00,,,0.00,0.000000,,2013-02-25 07:52:00,
2013-02-25 02:01:00,27.0,23.0,-100.00,ESE,116,2.0,3.0,85,0.00,,,0.00,0.000000,,2013-02-25 08:01:00,
2013-02-25 02:11:00,27.0,23.0,-100.00,ESE,116,2.0,3.0,85,0.00,,,0.00,0.000000,,2013-02-25 08:11:00,
2013-02-25 02:12:00,27.0,23.0,-100.00,SE,126,0.0,3.0,86,0.00,,,0.00,0.000000,,2013-02-25 08:12:00,
2013-02-25 02:32:00,27.0,23.0,-100.00,SE,126,0.0,3.0,86,0.00,,,0.00,0.000000,,2013-02-25 08:32:00,
2013-02-25 02:42:00,27.0,23.0,-100.00,SE,126,0.0,3.0,86,0.00,,,0.00,0.000000,,2013-02-25 08:42:00,
2013-02-25 02:52:00,27.0,23.0,-100.00,SE,126,0.0,3.0,86,0.00,,,0.00,0.000000,,2013-02-25 08:52:00,
2013-02-25 03:01:00,27.0,23.0,-100.00,SE,126,0.0,3.0,86,0.00,,,0.00,0.000000,,2013-02-25 09:01:00,
2013-02-25 03:32:00,26.0,23.0,-100.00,SE,137,0.0,2.0,88,0.00,,,0.00,0.000000,,2013-02-25 09:32:00,
2013-02-25 03:42:00,26.0,23.0,-100.00,SE,137,0.0,2.0,88,0.00,,,0.00,0.000000,,2013-02-25 09:42:00,
2013-02-25 03:52:00,26.0,23.0,-100.00,SE,137,0.0,2.0,88,0.00,,,0.00,0.000000,,2013-02-25 09:52:00,
2013-02-25 04:01:00,26.0,23.0,-100.00,SE,137,0.0,2.0,88,0.00,,,0.00,0.000000,,2013-02-25 10:01:00,
2013-02-25 04:11:00,26.0,23.0,-100.00,SE,137,0.0,2.0,88,0.00,,,0.00,0.000000,,2013-02-25 10:11:00,
2013-02-25 04:32:00,24.0,22.0,-100.00,SW,216,0.0,0.0,92,0.00,,,0.00,0.000000,,2013-02-25 10:32:00,
2013-02-25 04:42:00,24.0,22.0,-100.00,SW,216,0.0,0.0,92,0.00,,,0.00,0.000000,,2013-02-25 10:42:00,
2013-02-25 04:52:00,24.0,22.0,-100.00,SW,216,0.0,0.0,92,0.00,,,0.00,0.000000,,2013-02-25 10:52:00,
2013-02-25 05:01:00,24.0,22.0,-100.00,SW,216,0.0,0.0,92,0.00,,,0.00,0.000000,,2013-02-25 11:01:00,
2013-02-25 05:11:00,24.0,22.0,-100.00,SW,216,0.0,0.0,92,0.00,,,0.00,0.000000,,2013-02-25 11:11:00,
2013-02-25 05:32:00,24.0,22.0,-100.00,WSW,253,0.0,0.0,91,0.00,,,-99.99,0.000000,,2013-02-25 11:32:00,
2013-02-25 05:42:00,24.0,22.0,-100.00,WSW,253,0.0,0.0,91,0.00,,,-99.99,0.000000,,2013-02-25 11:42:00,
2013-02-25 05:52:00,24.0,22.0,-100.00,WSW,253,0.0,0.0,91,0.00,,,-99.99,0.000000,,2013-02-25 11:52:00,
2013-02-25 06:02:00,24.0,22.0,-100.00,WSW,253,0.0,0.0,91,0.00,,,-99.99,0.000000,,2013-02-25 12:02:00,
2013-02-25 06:11:00,24.0,22.0,-100.00,WSW,253,0.0,0.0,91,0.00,,,-99.99,0.000000,,2013-02-25 12:11:00,
2013-02-25 06:12:00,24.0,22.0,-100.00,WNW,293,0.0,0.0,91,0.00,,,0.00,0.000000,,2013-02-25 12:12:00,
2013-02-25 06:32:00,24.0,22.0,-100.00,WNW,293,0.0,0.0,91,0.00,,,0.00,0.000000,,2013-02-25 12:32:00,
2013-02-25 06:42:00,24.0,22.0,-100.00,WNW,293,0.0,0.0,91,0.00,,,0.00,0.000000,,2013-02-25 12:42:00,
2013-02-25 06:55:00,24.0,22.0,-100.00,WNW,293,0.0,0.0,91,0.00,,,0.00,0.000000,,2013-02-25 12:55:00,
2013-02-25 07:02:00,24.0,22.0,-100.00,WNW,293,0.0,0.0,91,0.00,,,0.00,0.000000,,2013-02-25 13:02:00,
2013-02-25 07:12:00,24.0,22.0,-100.00,ENE,69,0.0,4.0,91,0.00,,,0.00,7.000000,,2013-02-25 13:12:00,
2013-02-25 07:32:00,24.0,22.0,-100.00,ENE,69,0.0,4.0,91,0.00,,,0.00,7.000000,,2013-02-25 13:32:00,
2013-02-25 07:42:00,24.0,22.0,-100.00,ENE,69,0.0,4.0,91,0.00,,,0.00,7.000000,,2013-02-25 13:42:00,
2013-02-25 07:52:00,24.0,22.0,-100.00,ENE,69,0.0,4.0,91,0.00,,,0.00,7.000000,,2013-02-25 13:52:00,
2013-02-25 08:03:00,24.0,22.0,-100.00,ENE,69,0.0,4.0,91,0.00,,,0.00,7.000000,,2013-02-25 14:03:00,
2013-02-25 08:32:00,27.0,23.0,-100.00,SSW,196,1.0,3.0,85,0.00,,,-99.99,59.000000,,2013-02-25 14:32:00,
2013-02-25 08:42:00,27.0,23.0,-100.00,SSW,196,1.0,3.0,85,0.00,,,-99.99,59.000000,,2013-02-25 14:42:00,
2013-02-25 08:52:00,27.0,23.0,-100.00,SSW,196,1.0,3.0,85,0.00,,,-99.99,59.000000,,2013-02-25 14:52:00,
2013-02-25 09:02:00,27.0,23.0,-100.00,SSW,196,1.0,3.0,85,0.00,,,-99.99,59.000000,,2013-02-25 15:02:00,
2013-02-25 09:11:00,27.0,23.0,-100.00,SSW,196,1.0,3.0,85,0.00,,,-99.99,59.000000,,2013-02-25 15:11:00,
2013-02-25 09:32:00,30.0,22.0,-100.00,SW,226,2.0,5.0,73,0.00,,,0.00,118.000000,,2013-02-25 15:32:00,
2013-02-25 09:42:00,30.0,22.0,-100.00,SW,226,2.0,5.0,73,0.00,,,0.00,118.000000,,2013-02-25 15:42:00,
2013-02-25 09:52:00,30.0,22.0,-100.00,SW,226,2.0,5.0,73,0.00,,,0.00,118.000000,,2013-02-25 15:52:00,
2013-02-25 10:02:00,30.0,22.0,-100.00,SW,226,2.0,5.0,73,0.00,,,0.00,118.000000,,2013-02-25 16:02:00,
2013-02-25 10:11:00,30.0,22.0,-100.00,SW,226,2.0,5.0,73,0.00,,,0.00,118.000000,,2013-02-25 16:11:00,
2013-02-25 10:32:00,33.0,21.0,-100.00,SW,223,3.0,5.0,62,0.00,,,0.00,167.000000,,2013-02-25 16:32:00,
2013-02-25 10:42:00,33.0,21.0,-100.00,SW,223,3.0,5.0,62,0.00,,,0.00,167.000000,,2013-02-25 16:42:00,
2013-02-25 10:52:00,33.0,21.0,-100.00,SW,223,3.0,5.0,62,0.00,,,0.00,167.000000,,2013-02-25 16:52:00,
2013-02-25 11:01:00,33.0,21.0,-100.00,SW,223,3.0,5.0,62,0.00,,,0.00,167.000000,,2013-02-25 17:01:00,
2013-02-25 11:11:00,33.0,21.0,-100.00,SW,223,3.0,5.0,62,0.00,,,0.00,167.000000,,2013-02-25 17:11:00,
2013-02-25 11:12:00,34.0,21.0,-100.00,SSW,204,3.0,5.0,58,0.00,,,0.00,197.000000,,2013-02-25 17:12:00,
2013-02-25 11:32:00,34.0,21.0,-100.00,SSW,204,3.0,5.0,58,0.00,,,0.00,197.000000,,2013-02-25 17:32:00,
2013-02-25 11:42:00,34.0,21.0,-100.00,SSW,204,3.0,5.0,58,0.00,,,0.00,197.000000,,2013-02-25 17:42:00,
2013-02-25 11:52:00,34.0,21.0,-100.00,SSW,204,3.0,5.0,58,0.00,,,0.00,197.000000,,2013-02-25 17:52:00,
2013-02-25 12:01:00,34.0,21.0,-100.00,SSW,204,3.0,5.0,58,0.00,,,0.00,197.000000,,2013-02-25 18:01:00,
2013-02-25 12:33:00,35.0,20.0,-100.00,SW,228,5.0,8.0,55,0.00,,,0.00,270.000000,,2013-02-25 18:33:00,
2013-02-25 12:42:00,35.0,20.0,-100.00,SW,228,5.0,8.0,55,0.00,,,0.00,270.000000,,2013-02-25 18:42:00,
2013-02-25 12:52:00,35.0,20.0,-100.00,SW,228,5.0,8.0,55,0.00,,,0.00,270.000000,,2013-02-25 18:52:00,
2013-02-25 13:01:00,35.0,20.0,-100.00,SW,228,5.0,8.0,55,0.00,,,0.00,270.000000,,2013-02-25 19:01:00,
2013-02-25 13:11:00,35.0,20.0,-100.00,SW,228,5.0,8.0,55,0.00,,,0.00,270.000000,,2013-02-25 19:11:00,
2013-02-25 13:42:00,37.0,21.0,-100.00,West,260,4.0,14.0,52,0.00,,,0.00,317.000000,,2013-02-25 19:42:00,
2013-02-25 13:52:00,37.0,21.0,-100.00,West,260,4.0,14.0,52,0.00,,,0.00,317.000000,,2013-02-25 19:52:00,
2013-02-25 14:01:00,37.0,21.0,-100.00,West,260,4.0,14.0,52,0.00,,,0.00,317.000000,,2013-02-25 20:01:00,
2013-02-25 14:11:00,37.0,21.0,-100.00,West,260,4.0,14.0,52,0.00,,,0.00,317.000000,,2013-02-25 20:11:00,
2013-02-25 14:32:00,37.0,22.0,-100.00,West,280,2.0,9.0,54,0.00,,,0.00,262.000000,,2013-02-25 20:32:00,
2013-02-25 14:42:00,37.0,22.0,-100.00,West,280,2.0,9.0,54,0.00,,,0.00,262.000000,,2013-02-25 20:42:00,
2013-02-25 14:52:00,37.0,22.0,-100.00,West,280,2.0,9.0,54,0.00,,,0.00,262.000000,,2013-02-25 20:52:00,
2013-02-25 15:01:00,37.0,22.0,-100.00,West,280,2.0,9.0,54,0.00,,,0.00,262.000000,,2013-02-25 21:01:00,
2013-02-25 15:11:00,37.0,22.0,-100.00,West,280,2.0,9.0,54,0.00,,,0.00,262.000000,,2013-02-25 21:11:00,
2013-02-25 15:32:00,36.0,21.0,-100.00,West,264,4.0,9.0,55,0.00,,,0.00,157.000000,,2013-02-25 21:32:00,
2013-02-25 15:42:00,36.0,21.0,-100.00,West,264,4.0,9.0,55,0.00,,,0.00,157.000000,,2013-02-25 21:42:00,
2013-02-25 15:52:00,36.0,21.0,-100.00,West,264,4.0,9.0,55,0.00,,,0.00,157.000000,,2013-02-25 21:52:00,
2013-02-25 16:01:00,36.0,21.0,-100.00,West,264,4.0,9.0,55,0.00,,,0.00,157.000000,,2013-02-25 22:01:00,
2013-02-25 16:11:00,36.0,21.0,-100.00,West,264,4.0,9.0,55,0.00,,,0.00,157.000000,,2013-02-25 22:11:00,
2013-02-25 16:32:00,35.0,21.0,-100.00,SSW,202,3.0,7.0,57,0.00,,,-99.99,79.000000,,2013-02-25 22:32:00,
2013-02-25 16:42:00,35.0,21.0,-100.00,SSW,202,3.0,7.0,57,0.00,,,-99.99,79.000000,,2013-02-25 22:42:00,
2013-02-25 16:52:00,35.0,21.0,-100.00,SSW,202,3.0,7.0,57,0.00,,,-99.99,79.000000,,2013-02-25 22:52:00,
2013-02-25 17:01:00,35.0,21.0,-100.00,SSW,202,3.0,7.0,57,0.00,,,-99.99,79.000000,,2013-02-25 23:01:00,
2013-02-25 17:11:00,35.0,21.0,-100.00,SSW,202,3.0,7.0,57,0.00,,,-99.99,79.000000,,2013-02-25 23:11:00,
2013-02-25 17:12:00,35.0,23.0,-100.00,SSW,203,1.0,4.0,61,0.00,,,0.00,33.000000,,2013-02-25 23:12:00,
2013-02-25 17:32:00,35.0,23.0,-100.00,SSW,203,1.0,4.0,61,0.00,,,0.00,33.000000,,2013-02-25 23:32:00,
2013-02-25 17:42:00,35.0,23.0,-100.00,SSW,203,1.0,4.0,61,0.00,,,0.00,33.000000,,2013-02-25 23:42:00,
2013-02-25 17:52:00,35.0,23.0,-100.00,SSW,203,1.0,4.0,61,0.00,,,0.00,33.000000,,2013-02-25 23:52:00,
2013-02-25 18:01:00,35.0,23.0,-100.00,SSW,203,1.0,4.0,61,0.00,,,0.00,33.000000,,2013-02-26 00:01:00,
2013-02-25 18:32:00,32.0,25.0,-100.00,SSE,149,2.0,6.0,74,0.00,,,0.00,2.000000,,2013-02-26 00:32:00,
2013-02-25 18:42:00,32.0,25.0,-100.00,SSE,149,2.0,6.0,74,0.00,,,0.00,2.000000,,2013-02-26 00:42:00,
2013-02-25 18:52:00,32.0,25.0,-100.00,SSE,149,2.0,6.0,74,0.00,,,0.00,2.000000,,2013-02-26 00:52:00,
2013-02-25 19:02:00,32.0,25.0,-100.00,SSE,149,2.0,6.0,74,0.00,,,0.00,2.000000,,2013-02-26 01:02:00,
2013-02-25 19:11:00,32.0,25.0,-100.00,SSE,149,2.0,6.0,74,0.00,,,0.00,2.000000,,2013-02-26 01:11:00,
2013-02-25 19:32:00,31.0,24.0,-100.00,SE,140,2.0,3.0,76,0.00,,,0.00,0.000000,,2013-02-26 01:32:00,
2013-02-25 19:42:00,31.0,24.0,-100.00,SE,140,2.0,3.0,76,0.00,,,0.00,0.000000,,2013-02-26 01:42:00,
2013-02-25 19:52:00,31.0,24.0,-100.00,SE,140,2.0,3.0,76,0.00,,,0.00,0.000000,,2013-02-26 01:52:00,
2013-02-25 20:01:00,31.0,24.0,-100.00,SE,140,2.0,3.0,76,0.00,,,0.00,0.000000,,2013-02-26 02:01:00,
2013-02-25 20:11:00,31.0,24.0,-100.00,SE,140,2.0,3.0,76,0.00,,,0.00,0.000000,,2013-02-26 02:11:00,
2013-02-25 20:32:00,30.0,24.0,-100.00,SE,143,0.0,3.0,78,0.00,,,-99.99,0.000000,,2013-02-26 02:32:00,
2013-02-25 20:42:00,30.0,24.0,-100.00,SE,143,0.0,3.0,78,0.00,,,-99.99,0.000000,,2013-02-26 02:42:00,
2013-02-25 20:52:00,30.0,24.0,-100.00,SE,143,0.0,3.0,78,0.00,,,-99.99,0.000000,,2013-02-26 02:52:00,
2013-02-25 21:02:00,30.0,24.0,-100.00,SE,143,0.0,3.0,78,0.00,,,-99.99,0.000000,,2013-02-26 03:02:00,
2013-02-25 21:11:00,30.0,24.0,-100.00,SE,143,0.0,3.0,78,0.00,,,-99.99,0.000000,,2013-02-26 03:11:00,
2013-02-25 21:32:00,30.0,25.0,-100.00,SE,139,2.0,4.0,80,0.00,,,0.00,0.000000,,2013-02-26 03:32:00,
2013-02-25 21:42:00,30.0,25.0,-100.00,SE,139,2.0,4.0,80,0.00,,,0.00,0.000000,,2013-02-26 03:42:00,
2013-02-25 21:52:00,30.0,25.0,-100.00,SE,139,2.0,4.0,80,0.00,,,0.00,0.000000,,2013-02-26 03:52:00,
2013-02-25 22:01:00,30.0,25.0,-100.00,SE,139,2.0,4.0,80,0.00,,,0.00,0.000000,,2013-02-26 04:01:00,
2013-02-25 22:11:00,30.0,25.0,-100.00,SE,139,2.0,4.0,80,0.00,,,0.00,0.000000,,2013-02-26 04:11:00,
2013-02-25 22:12:00,30.0,24.0,-100.00,SE,135,1.0,4.0,79,0.00,,,0.00,0.000000,,2013-02-26 04:12:00,
2013-02-25 22:42:00,30.0,24.0,-100.00,SE,135,1.0,4.0,79,0.00,,,0.00,0.000000,,2013-02-26 04:42:00,
2013-02-25 22:52:00,30.0,24.0,-100.00,SE,135,1.0,4.0,79,0.00,,,0.00,0.000000,,2013-02-26 04:52:00,
2013-02-25 23:01:00,30.0,24.0,-100.00,SE,135,1.0,4.0,79,0.00,,,0.00,0.000000,,2013-02-26 05:01:00,
2013-02-25 23:32:00,29.0,24.0,-100.00,East,99,1.0,3.0,80,0.00,,,0.00,0.000000,,2013-02-26 05:32:00,
2013-02-25 23:43:00,29.0,24.0,-100.00,East,99,1.0,3.0,80,0.00,,,0.00,0.000000,,2013-02-26 05:43:00,
2013-02-25 23:52:00,29.0,24.0,-100.00,East,99,1.0,3.0,80,0.00,,,0.00,0.000000,,2013-02-26 05:52:00,